TimeMDT,TemperatureF,Dew PointF,Humidity,Sea Level PressureIn,VisibilityMPH,Wind Direction,Wind SpeedMPH,Gust SpeedMPH,PrecipitationIn,Events,Conditions,WindDirDegrees,DateUTC
12:53 AM,53.1,42.1,66,30.20,10.0,Calm,Calm,-,N/A,,Clear,0,2012-09-09 06:53:00
1:53 AM,52.0,43.0,71,30.19,10.0,Calm,Calm,-,N/A,,Clear,0,2012-09-09 07:53:00
2:53 AM,48.9,42.1,77,30.19,10.0,Calm,Calm,-,N/A,,Clear,0,2012-09-09 08:53:00
3:53 AM,48.9,42.1,77,30.19,10.0,Calm,Calm,-,N/A,,Clear,0,2012-09-09 09:53:00
4:53 AM,46.9,41.0,80,30.21,10.0,Calm,Calm,-,N/A,,Clear,0,2012-09-09 10:53:00
5:53 AM,46.0,42.1,86,30.21,10.0,Calm,Calm,-,N/A,,Clear,0,2012-09-09 11:53:00
6:53 AM,45.0,41.0,86,30.23,10.0,Calm,Calm,-,N/A,,Clear,0,2012-09-09 12:53:00
7:53 AM,50.0,43.0,77,30.23,10.0,Calm,Calm,-,N/A,,Clear,0,2012-09-09 13:53:00
8:53 AM,57.0,44.1,62,30.23,10.0,Calm,Calm,-,N/A,,Clear,0,2012-09-09 14:53:00
10:53 AM,70.0,42.1,36,30.19,10.0,SSE,6.9,-,N/A,,Clear,160,2012-09-09 16:53:00
11:53 AM,71.1,39.9,32,30.18,10.0,Calm,Calm,-,N/A,,Clear,0,2012-09-09 17:53:00
12:53 PM,73.0,39.0,29,30.14,10.0,Calm,Calm,-,N/A,,Scattered Clouds,0,2012-09-09 18:53:00
1:53 PM,75.9,37.9,25,30.11,10.0,Calm,Calm,-,N/A,,Scattered Clouds,0,2012-09-09 19:53:00
2:53 PM,77.0,36.0,23,30.09,10.0,SE,8.1,-,N/A,,Partly Cloudy,130,2012-09-09 20:53:00
3:53 PM,77.0,36.0,23,30.07,10.0,SW,8.1,-,N/A,,Scattered Clouds,220,2012-09-09 21:53:00
4:53 PM,77.0,36.0,23,30.06,10.0,Calm,Calm,-,N/A,,Clear,0,2012-09-09 22:53:00
5:53 PM,77.0,35.1,22,30.04,10.0,Calm,Calm,-,N/A,,Clear,0,2012-09-09 23:53:00
6:53 PM,75.0,34.0,22,30.05,10.0,SSW,6.9,-,N/A,,Clear,200,2012-09-10 00:53:00
7:53 PM,71.1,34.0,26,30.04,10.0,South,3.5,-,N/A,,Clear,190,2012-09-10 01:53:00
8:53 PM,64.0,33.1,31,30.07,10.0,Calm,Calm,-,N/A,,Clear,0,2012-09-10 02:53:00
9:53 PM,61.0,37.0,41,30.08,10.0,North,3.5,-,N/A,,Clear,350,2012-09-10 03:53:00
10:53 PM,59.0,36.0,42,30.09,10.0,Variable,4.6,-,N/A,,Clear,0,2012-09-10 04:53:00
11:53 PM,57.9,36.0,44,30.09,10.0,North,5.8,-,N/A,,Clear,360,2012-09-10 05:53:00